Regional Weather Roundup
Issued by NWS

Home | Current Version | Previous Version | Graphics & Text | Print | Product List | Glossary On
Versions: 1 2 3 4 5 6 7 8 9 10 11 12 13 14 15 16 17 18 19 20 21 22 23 24 25 26 27 28 29 30 31 32 33 34 35 36 37 38 39 40 41 42 43 44 45 46 47 48 49 50
000
ASUS43 KIND 231859
RWRIN

WEATHER ROUNDUP FOR INDIANA
NATIONAL WEATHER SERVICE INDIANAPOLIS IN
300 PM EDT TUE MAY 23 2017

NOTE: "FAIR" INDICATES FEW OR NO CLOUDS BELOW 12,000 FEET WITH NO
SIGNIFICANT WEATHER AND/OR OBSTRUCTIONS TO VISIBILITY.

* - STATION DOES NOT REPORT WEATHER SUCH AS PRECIPITATION OR FOG.

+ - STATION NOT QUALITY CONTROLLED BY THE NATIONAL WEATHER SERVICE.
    USE DATA WITH CAUTION...ESPECIALLY DEWPOINT AND RELATIVE
    HUMIDITY OBSERVATIONS.

INZ001>003-010>013-019-020-232000-
NORTHWEST INDIANA

CITY           SKY/WX    TMP DP  RH WIND       PRES   REMARKS
GARY /AIRPORT/ CLOUDY    64  54  68 CALM      29.77F
MICHIGAN CITY+ CLOUDY    63  57  82 NE5       29.77F
MONTICELLO +   PTSUNNY   69  48  47 S3        29.74F
RENSSELAER +   CLOUDY    64  52  63 NE6       29.75F

$$

LMZ046-743>745-232000-
SOUTHERN LAKE MICHIGAN

STATION/POSITION TIME  TEMP    WIND        PRES    WAVE
                       AIR SEA DIR/SP/G            HT
                 (UTC) (F)     (DEG/KT/KT) (MB)    (FT)
BURNS HARBOR     1840   58      70/  8/  9 1008.5F
MICHIGAN CITY    1830   57      40/ 10/ 10   N/A
5NW MICH CITY    1850   55 53   70/  6/  6   N/A     1

$$

INZ004-005-014>016-021>024-232000-
NORTH CENTRAL INDIANA

CITY           SKY/WX    TMP DP  RH WIND       PRES   REMARKS
ELKHART        CLOUDY    64  55  72 N8        29.77F
GOSHEN         CLOUDY    69  48  47 VRB3      29.75F
SOUTH BEND     CLOUDY    62  56  80 NE9       29.79S

$$

INZ006>009-017-018-025>027-232000-
NORTHEAST INDIANA

CITY           SKY/WX    TMP DP  RH WIND       PRES   REMARKS
ANGOLA *+      MOSUNNY   70  48  46 VRB6      29.76F
FORT WAYNE     PTSUNNY   70  45  40 E6        29.75F
KENDALLVILLE + PTSUNNY   71  48  44 E6        29.76F

$$

INZ028-029-035-036-043>045-051>053-232000-
WEST CENTRAL INDIANA

CITY           SKY/WX    TMP DP  RH WIND       PRES   REMARKS
CRAWFORDSVL +  CLOUDY    68  49  49 CALM      29.73F
GREENCASTLE +  CLOUDY    68  45  42 E3        29.73F
LAFAYETTE      CLOUDY    69  53  56 E3        29.73F
TERRE HAUTE    CLOUDY    70  48  45 E3        29.73F

$$

INZ030>032-037>040-046>048-054>057-064-065-232000-
CENTRAL INDIANA

CITY           SKY/WX    TMP DP  RH WIND       PRES   REMARKS
ANDERSON       MOSUNNY  N/A N/A N/A SE5       29.74F
CP ATTERBURY + CLOUDY    72  48  43 E7        29.73F
GREENWOOD *+   MOSUNNY   73  44  34 E6        29.74F
INDIANAPOLIS   CLOUDY    71  47  42 VRB5      29.72F
-EAGLE CREEK   CLOUDY    72  44  36 CALM      29.72F
KOKOMO +       MOSUNNY   69  49  48 SE6       29.75F
SHELBYVILLE    PTSUNNY   74  40  29 E7        29.72F

$$

INZ033-034-041-042-049-050-058-059-232000-
EAST CENTRAL INDIANA

CITY           SKY/WX    TMP DP  RH WIND       PRES   REMARKS
MUNCIE         MOSUNNY   74  42  31 SE9       29.73F
RICHMOND +     PTSUNNY   72  45  37 E5        29.75F

$$

INZ060-061-067>069-081>083-085>088-232000-
SOUTHWEST INDIANA

CITY           SKY/WX    TMP DP  RH WIND       PRES   REMARKS
EVANSVILLE     CLOUDY    79  48  33 VRB5      29.71F
HUNTINGBURG *+ CLOUDY    72  52  49 CALM      29.72F

$$

INZ062-063-066-070>080-084-089>092-232000-
SOUTH CENTRAL AND SOUTHEAST INDIANA

CITY           SKY/WX    TMP DP  RH WIND       PRES   REMARKS
BLOOMINGTON    CLOUDY    70  45  40 CALM      29.73F
MADISON *+     CLOUDY    73  46  38 E3        29.73F
SEYMOUR +      PTSUNNY   75  50  41 CALM      29.72F

$$





USA.gov is the U.S. government's official web portal to all federal, state and local government web resources and services.